Regional Weather Roundup
Issued by NWS

Home | Current Version | Previous Version | Text Only | Print | Product List | Glossary On
Versions: 1 2 3 4 5 6 7 8 9 10 11 12 13 14 15 16 17 18 19 20 21 22 23 24 25
000
ASUS45 KBOU 161410
RWRCO

WEATHER ROUNDUP FOR COLORADO
NATIONAL WEATHER SERVICE DENVER/BOULDER CO
800 AM MDT MON MAY 16 2022

NOTE: "FAIR" INDICATES FEW OR NO CLOUDS BELOW 12000 FEET WITH NO
SIGNIFICANT WEATHER AND/OR OBSTRUCTIONS TO VISIBILITY.

COZ001>005-013-030-031-161500-
...NORTHWEST COLORADO...

CITY           SKY/WX    TMP DP  RH WIND       PRES   REMARKS
CRAIG          FAIR      51  38  60 CALM      30.09S
HAYDEN         FAIR      53  35  50 E10       30.13R
MEEKER         FAIR      53  32  44 CALM      30.10S
RANGELY        FAIR      56  32  40 E10       30.03S
RABBIT EARS PA FAIR      46  27  46 CALM      30.38S
STEAMBOAT SPGS FAIR      45  34  66 CALM      30.13F
WALDEN         FAIR     N/A N/A N/A CALM      30.23S
$$

COZ006>008-011-161500-
...WEST CENTRAL VALLEYS...

CITY           SKY/WX    TMP DP  RH WIND       PRES   REMARKS
GRAND JUNCTION FAIR      71  24  17 E14       29.97F
MONTROSE       FAIR      59  28  30 S5        30.05F
EAGLE          FAIR      47  28  47 CALM      30.21S
RIFLE          FAIR      54  32  43 CALM      30.07S
DELTA          FAIR      64  27  24 NE7       30.04F
NUCLA          NOT AVBL
$$

COZ017>023-064>068-161500-
...SOUTHWEST COLORADO...

CITY           SKY/WX    TMP DP  RH WIND       PRES   REMARKS
DURANGO        FAIR      57  25  29 E5        30.19R
CORTEZ         FAIR      63  25  23 N5        30.09R
PAGOSA SPRINGS FAIR      58  32  36 CALM      30.27R
TELLURIDE      FAIR      59  19  21 SE12G17   30.30R
WOLF CREEK PAS FAIR      41  23  48 SW12G18     N/A
$$

COZ009-010-012-014-032>034-037-058>063-161500-
...CENTRAL COLORADO...

CITY           SKY/WX    TMP DP  RH WIND       PRES   REMARKS
ASPEN          FAIR      53  28  38 CALM      30.19S
BUENA VISTA      N/A     48  28  47 CALM      30.28F
COPPER MTN     FAIR      46  18  31 S9        30.49R
BERTHOUD PASS  FAIR      41  14  33 W18G28    30.50R
COTTONWOOD PAS FAIR      52  30  43 E3        30.37S
GUNNISON       FAIR      46  27  47 CALM      30.26F
GRANBY         FAIR      41  18  39 CALM      30.28S
KREMMLING      FAIR      41  32  70 CALM      30.24F
LEADVILLE      FAIR      43  27  53 CALM      30.36S
MONARCH PASS   FAIR      45  21  39 S9        30.59S
SALIDA         FAIR      51  29  42 N8        30.34S
SUNLIGHT       FAIR      48  14  25 S6        30.40S
WILKERSON PASS FAIR      45  23  42 S14G20    30.46R
$$

COZ069>075-161500-
...SAN LUIS VALLEY/SANGRE DE CRISTO MOUNTAINS...

CITY           SKY/WX    TMP DP  RH WIND       PRES   REMARKS
ALAMOSA        FAIR      52  31  44 SE5       30.26S
DEL NORTE      FAIR      52  23  32 W9        30.28S
LA VETA PASS   FAIR      45  27  49 W9G16     30.38S
SAGUACHE         N/A     52  27  37 W8        30.29R
$$

COZ035-036-038>040-161500-
...NORTHERN COLORADO FRONT RANGE...

CITY           SKY/WX    TMP DP  RH WIND       PRES   REMARKS
DENVER INTL AP PTSUNNY   61  36  39 SW6       30.06F
AURORA         PTSUNNY   61  35  37 SW9       30.08F
WATKINS        NOT AVBL
ERIE           FAIR      58  34  41 CALM      30.07S
BOULDER        FAIR      55  37  50 CALM      30.06S
CENTENNIAL     PTSUNNY   59  35  40 W3        30.09S
BROOMFIELD     PTSUNNY   57  36  44 CALM      30.08
FORT COLLINS   FAIR      55  37  50 W3        30.06S
LONGMONT       FAIR      58  40  50 CALM      30.08R
$$

COZ041-046-047-076>085-087-088-161500-
...PIKES PEAK/PALMER DIVIDE AND SOUTHERN FOOTHILLS...

CITY           SKY/WX    TMP DP  RH WIND       PRES   REMARKS
COLO. SPRINGS  PTSUNNY   58  38  47 E5        30.15F
A. F. ACADEMY  FAIR      53  31  43 CALM      30.14F
SCHRIEVER AFB  NOT AVBL
CHEYENNE MTN   CLOUDY    55  33  42 NE5       30.17S
ELLICOTT       PTSUNNY   56  42  60 S8        30.16S
FALCON         FAIR      54  38  53 S7        30.18F
FORT CARSON    FAIR      56  35  46 N3        30.11F
LIMON          FAIR      58  45  62 S15       30.11F
MONUMENT HILL  FAIR      55   9  15 S8        30.17F
CANON CITY     FAIR      57  34  41 SE3       30.11F
WALSENBURG     NOT AVBL
TRINIDAD       FAIR      68  44  42 E10       30.12F
$$

COZ042>045-048>051-090-091-161500-
...NORTHEAST COLORADO...

CITY           SKY/WX    TMP DP  RH WIND       PRES   REMARKS
GREELEY        FAIR      55  37  50 W6        30.05F
AKRON          FAIR      60  48  64 S16G26    30.06F
BURLINGTON     FAIR      64  52  64 S29G37    30.11S
WRAY           FAIR      64  50  59 S10G21    30.08F
YUMA           FAIR      61  37  41 S21G32    30.06F
STERLING       FAIR      63  48  59 S13       30.02F
HOLYOKE        FAIR      63  50  63 S16       30.07F
FORT MORGAN    FAIR      59  43  55 SW12      30.04F
$$

COZ086-089-092>099-161500-
...SOUTHEAST COLORADO...

CITY           SKY/WX    TMP DP  RH WIND       PRES   REMARKS
PUEBLO         FAIR      57  36  45 CALM      30.09S
LA JUNTA       FAIR      65  51  60 S9        30.08F
LAMAR          FAIR      68  52  56 S24G36    30.08F
SPRINGFIELD      N/A     66  49  54 S24G31    30.15F
$$



USA.gov is the U.S. government's official web portal to all federal, state and local government web resources and services.